Location: Harburg
(48.7667°N, 10.6667°E)
Time: 08:15:52
(UTC+00:00)

COSMOS 2406 - Pass Details

Date: 18 September 2020
Orbit: 844 x 863 km, 71.0° (Epoch: 24 October)

Event Time Altitude Azimuth Distance (km) Brightness Sun altitude
Rises 20:47:10 0° 329° (NNW) 3,415 7.4 -30.9°
Reaches altitude 10° 20:49:38 10° 327° (NNW) 2,475 6.5 -31.2°
Enters shadow 20:54:21 56° 292° (WNW) 999 3.7 -31.7°
